[[{"header":{"parameterUnit":"m.s-1","parameterCategory":1,"la1":30.2991,"la2":30.254,"lo1":-89.0895,"lo2":-89.0444,"dy":0.0017,"dx":0.0017,"nx":28,"ny":28,"refTime":"2024-10-05T09:00:00:Z","depth":0,"parameterNumber":2,"parameterNumberName":"U-component_of_WINDS"},"data":[0,0,0,0,0,0,0,0,0,0,0,0,0,0,0,0,0,0,0,0,0,0,0,0,0,0,0,0,0,0,0,0,0,0,0,0,0,0,0,0,0,0,0,0,0,0,0,0,0,0,0,0,0,0,0,0,0,0,-4.6248,-4.6249,0,-4.6296,-4.6297,-4.6297,-4.6254,-4.6252,-4.625,-4.6249,-4.6299,-4.6301,-4.6304,0,0,0,0,0,0,0,0,0,0,0,0,0,-4.612,-4.6123,-4.6248,-4.6249,-4.6249,-4.6296,-4.6297,-4.6298,-4.6254,-4.6252,-4.625,-4.6248,-4.6298,-4.6301,-4.6305,0,0,0,0,0,0,0,0,0,0,0,0,0,-4.6173,-4.6124,-4.6248,-4.6233,-4.6232,-4.6296,-4.6297,-4.6298,-4.6255,-4.6252,-4.6249,-4.6247,-4.6296,-4.6301,-4.6305,-4.6386,0,0,-4.6319,-4.6321,0,0,0,0,0,0,0,0,-4.617,-4.6178,-4.6235,-4.6234,-4.6234,-4.6266,-4.627,-4.6327,-4.6255,-4.6246,-4.6249,-4.6246,-4.629,-4.6295,-4.631,-4.6388,-4.639,-4.6319,-4.6322,-4.6324,-4.6325,0,0,0,0,0,0,0,-4.6166,-4.6175,-4.6267,-4.6236,-4.6235,-4.6225,-4.6229,-4.6281,-4.6282,-4.6247,-4.6244,-4.625,-4.6289,-4.6306,-4.6311,-4.6391,-4.6319,-4.6323,-4.6326,-4.6328,-4.6541,-4.6544,0,0,0,0,0,0,-4.6164,-4.6172,-4.6266,-4.6269,-4.6195,-4.6229,-4.6234,-4.6259,-4.6282,-4.6283,-4.6252,-4.6248,-4.6299,-4.6305,-4.6312,-4.641,-4.6324,-4.6328,-4.6331,-4.6538,-4.6542,-4.6545,0,0,0,0,0,0,-4.6161,-4.6173,-4.6264,-4.622,-4.6231,-4.6234,-4.6262,-4.6261,-4.6277,-4.6286,-4.6286,-4.6269,-4.6297,-4.6306,-4.6369,-4.6411,-4.633,-4.6334,-4.6535,-4.654,-4.6544,-4.6606,0,0,0,0,0,0,-4.6158,-4.6172,-4.6202,-4.6221,-4.6233,-4.6319,-4.6264,-4.6264,-4.6285,-4.628,-4.6301,-4.6302,-4.6296,-4.6362,-4.6373,-4.6416,-4.6338,-4.6531,-4.6537,-4.6542,-4.66,-4.6612,-4.6622,0,0,0,0,0,-4.6154,-4.6217,-4.6204,-4.6215,-4.6271,-4.6321,-4.6328,-4.632,-4.6288,-4.632,-4.6326,-4.6302,-4.6405,-4.6369,-4.6381,-4.6426,-4.6528,-4.6535,-4.6542,-4.6595,-4.661,-4.6622,0,0,0,0,0,0,-4.6203,-4.6219,-4.6205,-4.6276,-4.6298,-4.6314,-4.6352,-4.6335,-4.6366,-4.6359,-4.6347,-4.6353,-4.6419,-4.6429,-4.6388,-4.6507,-4.6462,-4.6471,-4.6498,-4.6512,-4.6523,-4.652,-4.6341,0,0,0,0,0,-4.6222,-4.6262,-4.6274,-4.6336,-4.6348,-4.6348,-4.637,-4.6362,-4.6383,-4.6392,-4.6403,-4.6425,-4.6463,-4.6488,-4.6523,-4.6601,-4.6607,-4.6638,-4.6649,-4.6658,-4.6667,-4.6712,-4.6727,-4.6568,-4.6567,-4.6567,0,0,-4.6263,-4.6276,-4.6302,-4.6346,-4.6362,-4.6404,-4.6356,-4.6402,-4.6433,-4.6399,-4.646,-4.6468,-4.6493,-4.6564,-4.6596,-4.6574,-4.6712,-4.6667,-4.6674,-4.6678,-4.6721,-4.6736,-4.6749,-4.6572,-4.6571,-4.6571,0,0,-4.6358,-4.6371,-4.6426,-4.6443,-4.6468,-4.6468,-4.6481,-4.6501,-4.6505,-4.6566,-4.6542,-4.6579,-4.6643,-4.6663,-4.6681,-4.6786,-4.6766,-4.6798,-4.6856,-4.69,-4.6912,-4.6924,-4.6963,-4.6977,-4.6806,-4.6806,-4.6806,0,-4.6405,-4.6466,-4.6456,-4.6504,-4.6526,-4.6497,-4.6553,-4.657,-4.6605,-4.6621,-4.6595,-4.6678,-4.6692,-4.6769,-4.6795,-4.681,-4.6826,-4.6795,-4.6911,-4.6922,-4.6933,-4.697,-4.6985,-4.681,-4.681,-4.6809,-4.6809,0,-4.6524,-4.6568,-4.6609,-4.6644,-4.667,-4.6722,-4.672,-4.6747,-4.6737,-4.6741,-4.6804,-4.6821,-4.686,-4.6877,-4.6867,-4.6954,-4.6939,-4.6913,-4.6868,-4.6952,-4.6987,-4.7001,-4.6816,-4.6814,-4.6813,-4.6812,0,0,-4.6651,-4.6682,-4.6697,-4.6714,-4.674,-4.6774,-4.6825,-4.6864,-4.6888,-4.6914,-4.6958,-4.7014,-4.6991,-4.7012,-4.7004,-4.7042,-4.7127,-4.7011,-4.7012,-4.7034,-4.7227,-4.7247,-4.7264,-4.7114,-4.7117,-4.7119,-4.7225,0,-4.6749,-4.6838,-4.6831,-4.6916,-4.6958,-4.6932,-4.6977,-4.6999,-4.7004,-4.704,-4.7046,-4.7087,-4.7052,-4.7065,-4.7101,-4.7109,-4.7166,-4.7101,-4.7156,-4.7159,-4.7153,-4.7282,-4.7304,-4.7403,-4.7239,-4.7241,-4.7243,0,-4.6874,-4.6905,-4.6995,-4.7017,-4.7034,-4.7075,-4.7111,-4.7145,-4.717,-4.7171,-4.7196,-4.7182,-4.7236,-4.7189,-4.7264,-4.722,-4.7242,-4.7249,-4.7253,-4.7259,-4.7207,-4.7293,-4.7435,-4.745,-4.7264,-4.7262,-4.7261,0,-4.6961,-4.7025,-4.7087,-4.7102,-4.7129,-4.7159,-4.7171,-4.7193,-4.7218,-4.7249,-4.7265,-4.7303,-4.7324,-4.7353,-4.7351,-4.7317,-4.7428,-4.738,-4.7432,-4.7432,-4.7457,-4.7456,-4.7606,-4.7469,-4.7469,-4.7468,-4.7468,0,-4.7071,-4.7127,-4.7127,-4.7165,-4.7228,-4.722,-4.7283,-4.7292,-4.7312,-4.7353,-4.7333,-4.7372,-4.7366,-4.7405,-4.7403,-4.7467,-4.7476,-4.748,-4.7479,-4.7482,-4.7482,-4.7498,-4.7491,-4.7472,-4.7471,-4.7471,-4.747,0,-4.7178,-4.718,-4.7246,-4.7267,-4.7274,-4.732,-4.7338,-4.7375,-4.7379,-4.7431,-4.7443,-4.745,-4.7495,-4.7496,-4.7547,-4.7546,-4.7625,-4.7615,-4.7617,-4.7615,-4.7668,-4.7664,-4.7834,-4.7857,-4.7704,-4.7705,-4.7707,0,-4.7249,-4.7292,-4.7318,-4.7344,-4.7359,-4.7401,-4.7426,-4.7421,-4.7448,-4.7481,-4.7515,-4.7559,-4.7593,-4.7668,-4.7678,-4.7718,-4.771,-4.7767,-4.7716,-4.7719,-4.7714,-4.7712,-4.7717,-4.7778,-4.778,-4.7781,-4.7782,0,-4.7376,-4.7375,-4.7412,-4.7451,-4.7482,-4.7512,-4.7539,-4.7562,-4.756,-4.7592,-4.7638,-4.7665,-4.7719,-4.7764,-4.7803,-4.7817,-4.7801,-4.7798,-4.7813,-4.7817,-4.7817,-4.782,-4.7646,-4.7794,-4.7793,-4.7792,-4.7792,-4.7791,-4.7469,-4.7507,-4.7532,-4.7574,-4.7595,-4.7622,-4.7658,-4.7668,-4.7706,-4.775,-4.7744,-4.7797,-4.7823,-4.7874,-4.7892,-4.7934,-4.7914,-4.7934,-4.794,-4.7946,-4.7952,-4.781,-4.7941,-4.794,-4.794,-4.794,-4.7939,0,-4.7596,-4.7611,-4.7651,-4.7691,-4.7725,-4.7706,-4.7736,-4.7766,-4.7813,-4.7838,-4.7874,-4.7929,-4.7972,-4.7987,-4.8029,-4.806,-4.8054,-4.8072,-4.807,-4.8074,-4.7966,-4.7951,-4.8077,-4.8077,-4.8077,-4.8077,-4.8077,-4.8077,-4.7666,-4.7731,-4.7733,-4.7808,-4.7823,-4.7874,-4.7894,-4.7919,-4.794,-4.8002,-4.8038,-4.8047,-4.8069,-4.8114,-4.8154,-4.8157,-4.8174,-4.8196,-4.8196,-4.8095,-4.8082,-4.8069,-4.8054,-4.8199,-4.82,-4.8301,-4.8302,-4.8303]},{"header":{"parameterUnit":"m.s-1","parameterCategory":1,"la1":30.2991,"la2":30.254,"lo1":-89.0895,"lo2":-89.0444,"dy":0.0017,"dx":0.0017,"nx":28,"ny":28,"refTime":"2024-10-05T09:00:00:Z","depth":0,"parameterNumber":3,"parameterNumberName":"V-component_of_WINDS"},"data":[0,0,0,0,0,0,0,0,0,0,0,0,0,0,0,0,0,0,0,0,0,0,0,0,0,0,0,0,0,0,0,0,0,0,0,0,0,0,0,0,0,0,0,0,0,0,0,0,0,0,0,0,0,0,0,0,0,0,-1.9938,-1.9938,0,-1.9937,-1.9937,-1.9937,-1.9908,-1.9907,-1.9906,-1.9905,-1.9905,-1.9906,-1.9907,0,0,0,0,0,0,0,0,0,0,0,0,0,-1.9914,-1.9914,-1.9938,-1.9938,-1.9938,-1.9937,-1.9937,-1.9937,-1.9908,-1.9907,-1.9906,-1.9905,-1.9905,-1.9906,-1.9907,0,0,0,0,0,0,0,0,0,0,0,0,0,-1.992,-1.9915,-1.9938,-1.9923,-1.9922,-1.9937,-1.9937,-1.9937,-1.9908,-1.9907,-1.9906,-1.9904,-1.9905,-1.9906,-1.9907,-1.9937,0,0,-1.991,-1.9911,0,0,0,0,0,0,0,0,-1.992,-1.9921,-1.9925,-1.9924,-1.9923,-1.9921,-1.9929,-1.9937,-1.9908,-1.9913,-1.9905,-1.9904,-1.9912,-1.9912,-1.9914,-1.9937,-1.9937,-1.991,-1.9911,-1.9911,-1.9912,0,0,0,0,0,0,0,-1.9919,-1.9921,-1.9938,-1.9925,-1.9924,-1.9917,-1.9916,-1.993,-1.9919,-1.9913,-1.991,-1.9911,-1.9911,-1.9913,-1.9914,-1.9937,-1.991,-1.9911,-1.9912,-1.9912,-1.9986,-1.9987,0,0,0,0,0,0,-1.9921,-1.9921,-1.9938,-1.9938,-1.9918,-1.9918,-1.9918,-1.9923,-1.9919,-1.9917,-1.9912,-1.9909,-1.9912,-1.9913,-1.9914,-1.9951,-1.9911,-1.9912,-1.9913,-1.9985,-1.9986,-1.9988,0,0,0,0,0,0,-1.992,-1.9923,-1.9938,-1.9929,-1.993,-1.992,-1.9926,-1.9924,-1.9926,-1.9918,-1.9916,-1.9917,-1.9911,-1.9913,-1.9932,-1.9951,-1.9913,-1.9914,-1.9983,-1.9985,-1.9987,-2.0024,0,0,0,0,0,0,-1.992,-1.9923,-1.9934,-1.9929,-1.9931,-1.9956,-1.9927,-1.9924,-1.9928,-1.9925,-1.9922,-1.9921,-1.991,-1.993,-1.9933,-1.9951,-1.9915,-1.9981,-1.9984,-1.9986,-2.0021,-2.0027,-2.0032,0,0,0,0,0,-1.9919,-1.9944,-1.9935,-1.9937,-1.9944,-1.9957,-1.9958,-1.9945,-1.993,-1.9942,-1.9936,-1.9921,-1.9948,-1.9933,-1.9935,-1.9954,-1.998,-1.9983,-1.9986,-2.0019,-2.0026,-2.0032,0,0,0,0,0,0,-1.9951,-1.9943,-1.9933,-1.9957,-1.9958,-1.9952,-1.9966,-1.9953,-1.9958,-1.9955,-1.994,-1.9939,-1.9962,-1.9959,-1.9943,-1.9984,-1.9961,-1.9965,-1.9985,-1.9992,-1.9997,-1.9999,-1.9915,0,0,0,0,0,-1.9961,-1.9971,-1.9964,-1.9986,-1.9987,-1.9976,-1.9981,-1.9972,-1.9972,-1.9972,-1.9968,-1.997,-1.9978,-1.9985,-1.9992,-2.002,-2.002,-2.0034,-2.004,-2.0044,-2.0049,-2.0065,-2.0072,-1.9997,-1.9997,-1.9997,0,0,-1.9981,-1.9978,-1.9986,-1.9992,-1.9992,-2.0004,-1.9977,-1.999,-1.9999,-1.9974,-1.9993,-1.999,-1.999,-2.0015,-2.0025,-2.0014,-2.0069,-2.0048,-2.0052,-2.0054,-2.0069,-2.0076,-2.0083,-1.9999,-1.9999,-1.9999,0,0,-2.0026,-2.0023,-2.0043,-2.0043,-2.0043,-2.0036,-2.004,-2.0036,-2.0034,-2.0052,-2.0034,-2.0044,-2.0059,-2.0061,-2.0064,-2.0109,-2.0096,-2.0112,-2.0142,-2.0158,-2.0164,-2.0169,-2.0188,-2.0195,-2.0115,-2.0116,-2.0116,0,-2.0052,-2.0069,-2.0054,-2.0069,-2.0073,-2.0051,-2.0071,-2.0072,-2.0074,-2.0078,-2.0064,-2.0084,-2.0082,-2.0108,-2.0119,-2.0121,-2.0127,-2.0113,-2.0164,-2.0169,-2.0174,-2.0192,-2.0199,-2.0118,-2.0117,-2.0117,-2.0117,0,-2.0102,-2.0114,-2.0129,-2.0133,-2.0139,-2.0156,-2.0144,-2.0152,-2.0141,-2.0136,-2.0156,-2.0153,-2.016,-2.0165,-2.0155,-2.019,-2.0183,-2.0167,-2.0144,-2.0184,-2.02,-2.0207,-2.0121,-2.012,-2.0119,-2.0119,0,0,-2.0168,-2.0163,-2.017,-2.0172,-2.017,-2.018,-2.0196,-2.0203,-2.0211,-2.0213,-2.0228,-2.0241,-2.0227,-2.023,-2.022,-2.0234,-2.0273,-2.0217,-2.0216,-2.023,-2.0314,-2.0329,-2.0337,-2.0263,-2.0264,-2.0265,-2.0315,0,-2.0213,-2.0242,-2.0229,-2.026,-2.0272,-2.0251,-2.0265,-2.0266,-2.0262,-2.0271,-2.0265,-2.0277,-2.0255,-2.0258,-2.027,-2.0266,-2.0291,-2.0262,-2.0279,-2.028,-2.0283,-2.0345,-2.036,-2.0407,-2.0321,-2.0322,-2.0323,0,-2.027,-2.0275,-2.0307,-2.0305,-2.031,-2.0323,-2.033,-2.0339,-2.034,-2.0335,-2.0339,-2.0326,-2.0343,-2.0318,-2.0342,-2.0323,-2.0329,-2.0328,-2.0329,-2.0333,-2.0306,-2.0353,-2.0421,-2.043,-2.0333,-2.0332,-2.0331,0,-2.0318,-2.0333,-2.0355,-2.0357,-2.0354,-2.0365,-2.0364,-2.0363,-2.0369,-2.0375,-2.0379,-2.0385,-2.039,-2.0396,-2.0386,-2.0368,-2.0412,-2.0386,-2.0411,-2.0411,-2.0423,-2.0423,-2.0497,-2.0422,-2.0422,-2.0422,-2.0422,0,-2.0372,-2.0393,-2.0377,-2.0391,-2.0414,-2.0399,-2.0423,-2.0419,-2.0419,-2.0433,-2.0413,-2.0426,-2.041,-2.0421,-2.0413,-2.0436,-2.0437,-2.0435,-2.0433,-2.0439,-2.0439,-2.0445,-2.0442,-2.0424,-2.0423,-2.0423,-2.0423,0,-2.0431,-2.0421,-2.0444,-2.0439,-2.0439,-2.0457,-2.0453,-2.0466,-2.0459,-2.0476,-2.0479,-2.0469,-2.0482,-2.0471,-2.0482,-2.0477,-2.0508,-2.05,-2.0509,-2.0507,-2.0534,-2.0533,-2.0616,-2.0627,-2.0542,-2.0543,-2.0544,0,-2.0468,-2.0484,-2.0481,-2.0489,-2.049,-2.0502,-2.0508,-2.0493,-2.05,-2.0503,-2.0516,-2.0527,-2.0535,-2.0556,-2.0551,-2.056,-2.0554,-2.0582,-2.0555,-2.0561,-2.0558,-2.0558,-2.0561,-2.0589,-2.059,-2.059,-2.0591,0,-2.0535,-2.0529,-2.0539,-2.0547,-2.0555,-2.0561,-2.0565,-2.0572,-2.0557,-2.0566,-2.0579,-2.0586,-2.0598,-2.061,-2.0617,-2.0617,-2.0603,-2.0599,-2.0606,-2.0613,-2.0619,-2.062,-2.0527,-2.0598,-2.0597,-2.0597,-2.0596,-2.0596,-2.0586,-2.06,-2.0601,-2.0613,-2.0614,-2.0619,-2.0631,-2.0626,-2.0637,-2.0647,-2.0637,-2.0653,-2.0654,-2.0663,-2.0664,-2.0677,-2.0665,-2.0674,-2.0677,-2.0681,-2.0686,-2.0614,-2.0678,-2.0677,-2.0677,-2.0677,-2.0677,0,-2.0654,-2.0654,-2.0665,-2.0672,-2.0681,-2.0665,-2.0669,-2.0679,-2.0694,-2.0696,-2.0704,-2.072,-2.0731,-2.0726,-2.0737,-2.0748,-2.0742,-2.0752,-2.0752,-2.0753,-2.0694,-2.0689,-2.0757,-2.0757,-2.0757,-2.0757,-2.0757,-2.0757,-2.0691,-2.0715,-2.071,-2.0735,-2.0734,-2.075,-2.0754,-2.0759,-2.0761,-2.0779,-2.0789,-2.0785,-2.0785,-2.0795,-2.0805,-2.0803,-2.0809,-2.0822,-2.0819,-2.0764,-2.0757,-2.0749,-2.0744,-2.0823,-2.0823,-2.0877,-2.0877,-2.0878]}]]